This demonstration page uses our WeatherBlox Daily Observations layout. Learn more.

Hourly Observations for November 20, 2019

Temp ( °F °C ) Dew Point ( °F °C ) Humidity (%) Winds ( mph kmh ) Pressure ( in mb ) Visibility ( mi km ) Precip ( " mm )
12:15 am 00:15 Clear 41 5 32 0 70 70 SE 10 17 29.8 1009 10 16.0934 0 0
12:35 am 00:35 Clear 42 5.3 32 0 69 69 SE 10 17 29.79 1009 10 16.0934 0 0
12:55 am 00:55 Clear 42 5.3 32 0 69 69 SE 10 17 29.78 1009 10 16.0934 0 0
1:15 am 01:15 Clear 41 5 32 0 70 70 SE 12 19 29.78 1008 10 16.0934 0 0
1:35 am 01:35 Clear 40 4.3 32 0 74 74 SE 7 11 29.77 1008 10 16.0934 0 0
1:55 am 01:55 Clear 38 3.5 32 -0.2 77 77 SE 6 9 29.78 1009 10 16.0934 0 0
2:15 am 02:15 Clear 37 2.6 31 -0.5 80 80 SE 8 13 29.79 1009 10 16.0934 0 0
2:35 am 02:35 Clear 37 2.9 32 -0.1 81 81 SE 7 11 29.78 1008 10 16.0934 0 0
2:55 am 02:55 Clear 37 2.5 32 -0.1 83 83 SE 6 9 29.79 1009 10 16.0934 0 0
3:15 am 03:15 Clear 34 1.1 30 -1 86 86 ESE 6 9 29.78 1009 10 16.0934 0 0
3:35 am 03:35 Clear 35 1.5 32 -0.2 89 89 ESE 6 9 29.79 1009 10 16.0934 0 0
3:55 am 03:55 Clear 34 0.9 31 -0.7 89 89 ESE 7 11 29.79 1009 10 16.0934 0 0
4:15 am 04:15 Clear 33 0.6 31 -0.5 92 92 SE 6 9 29.78 1008 10 16.0934 0 0
4:35 am 04:35 Clear 36 2 32 0 87 87 SE 8 13 29.77 1008 10 16.0934 0 0
4:55 am 04:55 Clear 35 1.5 32 -0.1 89 89 SE 6 9 29.76 1008 10 16.0934 0 0
5:15 am 05:15 Clear 36 2 32 0 87 87 SE 7 11 29.76 1008 10 16.0934 0 0
5:35 am 05:35 Clear 36 2 32 0.1 87 87 SE 5 7 29.76 1008 10 16.0934 0 0
5:55 am 05:55 Clear 35 1.9 32 0.2 89 89 SE 6 9 29.76 1008 10 16.0934 0 0
6:15 am 06:15 Clear 36 2.1 33 0.5 89 89 SE 9 15 29.74 1007 10 16.0934 0 0
6:35 am 06:35 Clear 37 2.5 33 0.6 87 87 SE 8 13 29.74 1007 10 16.0934 0 0
6:55 am 06:55 Clear 37 2.8 34 1.1 89 89 ESE 8 13 29.75 1007 10 16.0934 0 0
7:15 am 07:15 Clear 37 2.8 34 1.1 89 89 ESE 9 15 29.74 1007 10 16.0934 0 0
7:35 am 07:35 Sunny 37 2.8 34 1.1 89 89 SE 9 15 29.74 1007 10 16.0934 0 0
7:55 am 07:55 Sunny 37 3 34 1.2 88 88 SE 7 11 29.75 1007 10 16.0934 0 0
8:15 am 08:15 Sunny 38 3.5 35 1.6 88 88 SE 7 11 29.74 1007 10 16.0934 0 0
8:35 am 08:35 Sunny 39 3.7 35 1.9 88 88 SE 3 6 29.74 1007 10 16.0934 0 0
8:55 am 08:55 Sunny 41 5 37 3 87 87 SE 6 9 29.72 1006 10 16.0934 0 0
9:15 am 09:15 Sunny 43 6 38 3.4 84 84 SE 7 11 29.71 1006 10 16.0934 0 0
9:35 am 09:35 Sunny 45 7 39 3.7 80 80 SE 9 15 29.7 1006 10 16.0934 0 0
9:55 am 09:55 Sunny 47 8.3 40 4.5 77 77 SSE 10 17 29.69 1005 10 16.0934 0 0
10:15 am 10:15 Sunny 48 8.8 40 4.7 76 76 SSE 10 17 29.68 1005 10 16.0934 0 0
10:35 am 10:35 Sunny 49 9.5 41 5.1 74 74 SE 10 17 29.67 1005 10 16.0934 0 0
10:55 am 10:55 Sunny 51 10.6 42 5.6 71 71 ESE 12 19 29.65 1004 10 16.0934 0 0
11:15 am 11:15 Sunny 52 11.3 43 6.1 71 71 SE 10 17 29.64 1004 10 16.0934 0 0
11:35 am 11:35 Sunny 53 11.5 44 6.4 71 71 SE 14 22 29.63 1003 10 16.0934 0 0
11:55 am 11:55 Sunny 54 12.1 44 6.9 71 71 SSE 15 24 29.61 1003 10 16.0934 0 0
12:15 pm 12:15 Sunny 56 13.4 45 7.3 67 67 S 16 26 29.59 1002 10 16.0934 0 0
12:35 pm 12:35 Sunny 56 13.4 45 7.1 66 66 S 15 24 29.58 1002 10 16.0934 0 0
12:55 pm 12:55 Sunny 56 13.1 45 7.4 69 69 S 10 17 29.61 1003 10 16.0934 0 0
1:15 pm 13:15 Sunny 56 13.2 46 7.6 69 69 SSW 10 17 29.61 1003 10 16.0934 0 0
1:35 pm 13:35 Sunny 57 13.7 46 7.8 68 68 SSW 3 6 29.6 1002 10 16.0934 0 0
1:55 pm 13:55 Sunny 58 14.3 46 7.9 66 66 S 6 9 29.6 1002 10 16.0934 0 0
2:15 pm 14:15 Sunny 58 14.6 46 7.8 64 64 SSW 7 11 29.58 1002 10 16.0934 0 0
2:35 pm 14:35 Sunny 60 15.5 46 7.7 60 60 SW 5 7 29.58 1002 10 16.0934 0 0
2:55 pm 14:55 Partly Cloudy 58 14.7 46 7.8 64 64 Calm 29.58 1002 10 16.0934 0 0
3:15 pm 15:15 Sunny 59 15 46 7.7 62 62 Calm 29.57 1001 10 16.0934 0 0
3:35 pm 15:35 Sunny 59 15 46 8 63 63 Calm 29.58 1002 10 16.0934 0 0
3:55 pm 15:55 Sunny 59 15 46 7.8 62 62 Calm 29.59 1002 10 16.0934 0 0
4:15 pm 16:15 Sunny 58 14.5 46 7.5 63 63 N 5 7 29.59 1002 10 16.0934 0 0
4:35 pm 16:35 Sunny 57 13.9 45 7 63 63 N 6 9 29.6 1002 10 16.0934 0 0
4:55 pm 16:55 Partly Cloudy 56 13.2 44 6.7 65 65 N 3 6 29.62 1003 10 16.0934 0 0
5:15 pm 17:15 Partly Cloudy 55 12.7 44 6.6 67 67 N 9 15 29.62 1003 10 16.0934 0 0
5:35 pm 17:35 Mostly Cloudy 54 12.1 44 6.5 69 69 N 10 17 29.63 1004 10 16.0934 0 0
5:55 pm 17:55 Cloudy with Light Rain 53 11.4 45 7 75 75 N 9 15 29.64 1004 10 16.0934 0 0
6:15 pm 18:15 Cloudy with Light Rain 51 10.7 45 7.4 80 80 N 13 20 29.67 1005 10 16.0934 0 0
6:35 pm 18:35 Cloudy with Rain 45 7.3 40 4.5 83 83 N 20 31 29.72 1006 7 11.26538 0.04 1.016
6:55 pm 18:55 Cloudy with Rain 42 5.6 39 4 90 90 N 18 30 29.74 1007 7 11.26538 0.08 2.032
7:15 pm 19:15 Cloudy with Rain 41 5 38 3.6 91 91 N 20 31 29.75 1007 5 8.0467 0.05 1.27
7:35 pm 19:35 Cloudy with Rain 40 4.6 38 3.6 93 93 N 23 37 29.77 1008 5 8.0467 0.11 2.794
7:55 pm 19:55 Cloudy with Rain 39 4.1 38 3.4 95 95 N 16 26 29.78 1008 5 8.0467 0.15 3.81
8:15 pm 20:15 Cloudy with Rain 39 3.7 38 3.1 96 96 NNW 18 30 29.8 1009 3 4.82802 0.06 1.524
8:35 pm 20:35 Cloudy with Rain 38 3.3 37 2.7 96 96 NNW 17 28 29.8 1009 4 6.43736 0.11 2.794
8:55 pm 20:55 Cloudy with Rain 38 3.1 37 2.6 97 97 NNW 16 26 29.84 1010 4 6.43736 0.15 3.81
9:15 pm 21:15 Cloudy with Light Rain 38 3.1 37 2.5 96 96 NNW 16 26 29.85 1011 5 8.0467 0.02 0.508
9:35 pm 21:35 Cloudy with Drizzle 37 3 37 2.5 97 97 NNW 15 24 29.87 1011 7 11.26538 0.03 0.762
9:55 pm 21:55 Cloudy with Drizzle 37 3 37 2.5 97 97 NNW 14 22 29.88 1012 4 6.43736 0.03 0.762
10:15 pm 22:15 Cloudy 37 3 36 2.3 95 95 NNW 15 24 29.89 1012 10 16.0934 0 0
10:35 pm 22:35 Cloudy 37 3 36 2.1 94 94 NNW 17 28 29.9 1012 10 16.0934 0 0
10:55 pm 22:55 Cloudy with Light Rain 37 2.8 36 2 95 95 NNW 15 24 29.91 1013 7 11.26538 0 0
11:15 pm 23:15 Cloudy with Light Rain 37 2.6 36 2 96 96 NNW 15 24 29.92 1013 7 11.26538 0 0
11:35 pm 23:35 Cloudy with Drizzle 36 2.4 35 1.8 96 96 NNW 16 26 29.91 1013 10 16.0934 0.01 0.254
11:55 pm 23:55 Cloudy 36 2 34 1.3 95 95 NNW 16 26 29.93 1013 10 16.0934 0.01 0.254

Powered by AerisWeather